Time,B instrument,Bx,By,Bz,sigma B,Ion instrument,Status,Tp_par,Tp_perp,carrot,r_sun,clat,clong,earth_he_angle,n_p,vp_x,vp_y,vp_z,vth_p_par,vth_p_perp
1980-06-30 00:01:06,1,2.2,12.35,-7.7,0.377492,1,1,16862.5,17756.4,1696,0.65093917,5.9834156,177.91255,101.54927,31.191,269.192,5.24946,-9.94746,16.6847,17.1213
1980-06-30 00:02:27,1,2.2,12.25,-8.1,0.342783,1,1,21231.7,18471.7,1696,0.65094686,5.9833374,177.90128,101.54971,30.9065,268.884,6.01747,-11.3663,18.7219,17.4627
1980-06-30 00:03:48,1,2.0,12.6,-7.6,0.173205,1,1,18096.3,18458.8,1696,0.65095454,5.9832592,177.89,101.55016,31.7686,267.989,5.92556,-8.86783,17.2843,17.4566
1980-06-30 00:05:09,1,2.4,12.625,-7.5,0.248747,1,1,18632.7,17453.3,1696,0.65096992,5.9831018,177.87527,101.55106,28.8293,268.46,7.94817,-9.3484,17.5386,16.9745
1980-06-30 00:06:30,1,2.35,12.7,-7.625,1.15731,1,1,18384.2,18880.4,1696,0.65097767,5.9830236,177.864,101.5515,32.0805,269.121,5.29527,-10.8417,17.4213,17.6548
1980-06-30 00:07:51,1,2.78,12.94,-7.8,0.178885,1,1,20393.6,17619.3,1696,0.65098536,5.9829445,177.85272,101.55194,29.5746,269.652,5.53253,-10.9888,18.3487,17.055
1980-06-30 00:09:12,1,2.78,12.18,-8.48,0.380526,1,1,19263.6,19184.0,1696,0.65100074,5.9827881,177.8419,101.55284,30.8935,269.779,4.40477,-12.5976,17.8331,17.7962
1980-06-30 00:10:33,1,2.64,11.84,-8.58,0.257682,1,1,28681.9,17676.9,1696,0.65100843,5.9827099,177.83063,101.55328,30.0839,268.337,4.94419,-12.6959,21.7601,17.0829
1980-06-30 00:11:54,1,0.975,10.3,-9.9,0.258602,1,1,20680.8,20860.9,1696,0.65101612,5.9826307,177.81544,101.55373,31.4476,268.821,3.83861,-12.3941,18.4774,18.5577
1980-06-30 00:13:15,1,0.68,10.36,-9.94,0.2498,1,1,22042.7,19384.9,1696,0.65103155,5.9824743,177.80463,101.55463,32.2961,267.557,3.31533,-12.6848,19.0762,17.8892
1980-06-30 00:14:36,1,0.36,10.32,-10.7,0.252982,1,1,15368.5,15648.1,1696,0.65103924,5.9823952,177.79335,101.55507,29.091,267.469,1.87632,-11.8179,15.9285,16.0727
1980-06-30 00:15:57,1,0.16,9.76,-10.76,0.528394,1,1,22090.6,16188.7,1696,0.65104693,5.982317,177.78207,101.55551,29.2736,266.858,1.33129,-11.6367,19.0969,16.348
1980-06-30 00:17:18,1,-0.36,9.46,-11.16,0.398999,1,1,15607.3,16135.2,1696,0.65106231,5.9821596,177.77124,101.5564,29.0414,266.7,0.328312,-14.1842,16.0517,16.3209
1980-06-30 00:18:39,1,-0.9,10.325,-10.8,0.248747,1,1,20971.9,16147.6,1696,0.65107006,5.9820814,177.75998,101.55685,30.016,265.751,3.74479,-9.76032,18.607,16.3272
1980-06-30 00:20:00,1,-1.375,10.25,-10.7,0.253722,1,1,16176.0,15916.1,1696,0.65108544,5.981925,177.74524,101.55774,30.0164,265.375,2.92015,-9.86113,16.3416,16.2097
1980-06-30 00:21:21,1,-1.675,10.95,-10.1,0.156125,1,1,21232.3,17015.4,1696,0.65109313,5.9818459,177.73396,101.55818,30.2985,265.069,3.60787,-10.1934,18.7222,16.7602
1980-06-30 00:22:42,1,-3.375,9.85,-9.425,0.419821,1,1,17235.9,19563.2,1696,0.65110081,5.9817677,177.7227,101.55864,31.0379,263.966,5.50212,-12.0527,16.8685,17.9713
1980-06-30 00:24:03,1,-3.425,8.95,-10.0,0.551702,1,1,21418.0,18510.4,1696,0.65111625,5.9816103,177.71187,101.55952,31.5988,262.769,3.54477,-13.936,18.8039,17.481
1980-06-30 00:25:24,1,-2.0,10.625,-9.375,0.44017,1,1,16838.0,18548.6,1696,0.65112394,5.9815321,177.70059,101.55997,32.1287,263.407,4.70709,-12.8052,16.6726,17.499
1980-06-30 00:26:45,1,-2.425,10.2,-9.3,0.178536,1,1,20699.9,17950.2,1696,0.65113163,5.9814539,177.68933,101.56042,32.258,262.446,6.55015,-12.1584,18.4859,17.2144
1980-06-30 00:28:06,1,-2.675,10.05,-9.0,0.272718,1,1,20575.5,18786.2,1696,0.65114701,5.9812965,177.67459,101.56131,32.2429,263.49,6.49753,-11.5996,18.4303,17.6107
1980-06-30 00:29:27,1,-1.76,10.34,-8.38,0.531413,1,1,19462.7,18387.2,1696,0.6511547,5.9812183,177.66331,101.56175,33.2177,264.191,9.52681,-10.7535,17.925,17.4227
1980-06-30 00:30:48,1,-0.825,10.3,-8.375,0.456892,1,1,21698.1,19224.7,1696,0.65116245,5.9811392,177.65205,101.56221,32.1968,264.201,7.33977,-10.6965,18.9264,17.8151
1980-06-30 00:32:09,1,0.95,10.8,-8.15,0.430116,1,1,20078.6,19388.4,1696,0.65117782,5.9809828,177.64122,101.5631,30.5166,265.301,7.45923,-9.94876,18.2064,17.8907
1980-06-30 00:33:30,1,1.75,10.7,-8.3,0.239792,1,1,18919.8,17812.1,1696,0.65118551,5.9809046,177.62994,101.56354,30.2302,267.674,6.53738,-8.82287,17.6732,17.1481
1980-06-30 00:34:51,1,0.75,10.675,-8.425,0.382426,1,1,21115.2,17945.9,1696,0.6511932,5.9808254,177.61476,101.56398,30.6029,267.057,7.73628,-8.85014,18.6705,17.2124
1980-06-30 00:36:12,1,0.775,10.925,-8.225,0.325,1,1,17702.2,16741.4,1696,0.65120864,5.980669,177.60394,101.56488,30.7887,264.858,5.7792,-10.1768,17.0951,16.6247
1980-06-30 00:37:33,1,0.075,10.6,-8.9,0.294746,1,1,18611.0,18007.2,1696,0.65121633,5.9805899,177.59267,101.56532,30.4527,264.732,7.90397,-9.63579,17.5284,17.2417
1980-06-30 00:38:54,1,0.425,10.55,-8.7,0.156125,1,1,17427.0,17613.5,1696,0.65122402,5.9805117,177.58139,101.56577,29.373,266.283,5.27979,-10.4114,16.9617,17.0522
1980-06-30 00:40:15,1,1.325,10.625,-8.6,0.306186,1,1,20070.3,17765.9,1696,0.6512394,5.9803553,177.57057,101.56667,30.0311,265.528,7.22791,-10.2553,18.2027,17.1258
1980-06-30 00:41:36,1,-0.04,11.02,-8.12,0.365513,1,1,16991.4,16972.4,1696,0.65124708,5.9802761,177.5593,101.56711,30.8006,264.204,6.05791,-8.80188,16.7484,16.739
1980-06-30 00:42:57,1,0.8,11.2,-7.9,0.0,1,1,24185.5,17222.7,1696,0.65125483,5.9801979,177.54411,101.56755,29.3028,264.626,4.06662,-13.1793,19.9818,16.862
1980-06-30 00:44:18,1,-1.325,10.1,-8.725,0.508675,1,1,17698.6,16591.8,1696,0.65127021,5.9800406,177.53329,101.56845,29.7387,259.574,3.15317,-11.5368,17.0934,16.5503
1980-06-30 00:45:39,1,-2.475,9.9,-8.9,0.34187,1,1,21360.1,16302.5,1696,0.6512779,5.9799623,177.52202,101.56889,30.228,261.902,3.57675,-11.8651,18.7784,16.4053
1980-06-30 00:47:00,1,-2.225,9.8,-8.9,0.178536,1,1,14899.9,14493.1,1696,0.65129328,5.979805,177.51118,101.56978,30.7844,261.321,3.5603,-11.1819,15.6837,15.4681
1980-06-30 00:48:21,1,-1.975,9.8,-8.85,0.272718,1,1,21047.9,17367.8,1696,0.65130103,5.9797268,177.49992,101.57024,30.833,261.367,4.25909,-12.3629,18.6407,16.9328
1980-06-30 00:49:42,1,-1.45,10.025,-8.9,0.156125,1,1,15923.9,16160.2,1696,0.65130872,5.9796486,177.48865,101.57068,30.9375,260.983,4.41899,-11.6737,16.2137,16.3336
1980-06-30 00:51:03,1,-0.775,10.45,-8.275,0.247487,1,1,22122.8,16223.1,1696,0.65132409,5.9794912,177.47391,101.57156,30.407,261.03,4.57694,-13.5698,19.1108,16.3653
1980-06-30 00:52:24,1,-0.825,9.675,-8.9,0.220794,1,1,15237.7,15875.9,1696,0.65133178,5.979413,177.46265,101.57202,30.2963,260.369,5.15219,-12.2498,15.8605,16.1893
1980-06-30 00:53:45,1,-1.525,10.3,-8.5,0.356195,1,1,20193.6,16906.5,1696,0.65133947,5.9793348,177.45137,101.57246,30.3883,260.54,4.07086,-11.5032,18.2585,16.7065
1980-06-30 00:55:06,1,-1.675,8.275,-8.875,0.317214,1,1,15860.4,15877.6,1696,0.65135491,5.9791775,177.44054,101.57335,31.0883,260.067,8.2313,-8.1334,16.1813,16.1901
1980-06-30 00:56:27,1,-1.6,8.3,-8.9,0.0,1,1,22384.6,17289.3,1696,0.6513626,5.9790993,177.42928,101.57381,32.8136,262.241,5.39564,-11.1103,19.2235,16.8946
1980-06-30 00:57:48,1,-1.0,8.1,-8.8,0.173205,1,1,17785.8,17688.0,1696,0.65137029,5.9790201,177.41409,101.57425,33.5426,262.755,3.46707,-11.1797,17.1354,17.0882
1980-06-30 00:59:09,1,-0.25,8.675,-8.7,0.298957,1,1,23292.5,17082.4,1696,0.65138566,5.9788637,177.40326,101.57513,32.9644,261.354,5.16366,-9.95186,19.6095,16.7931
1980-06-30 01:00:30,1,0.575,9.0,-9.0,0.319179,1,1,13693.3,14053.6,1696,0.65139341,5.9787855,177.392,101.57559,30.0013,259.988,1.25366,-10.3702,15.0353,15.2318
1980-06-30 01:01:51,1,-1.0,9.0,-8.5,0.0,1,1,24922.8,17776.4,1696,0.6514011,5.9787064,177.38072,101.57603,33.4786,261.085,3.10056,-11.8003,20.2841,17.1309
1980-06-30 01:42:19,-1,nan,nan,nan,nan,1,3,nan,nan,1696,0.65171647,5.9754858,177.02785,101.59425,nan,257.059,0.905818,-11.1029,nan,nan
1980-06-30 01:42:21,-1,nan,nan,nan,nan,1,3,nan,nan,1697,0.65174568,5.973877,176.96304,101.52945,nan,258.843,0.0409982,-11.2763,nan,nan
1980-06-30 01:46:24,-1,nan,nan,nan,nan,1,4,nan,nan,1696,0.65174729,5.975172,176.99057,101.59604,nan,nan,nan,nan,nan,nan
1980-06-30 01:47:43,-1,nan,nan,nan,nan,1,3,nan,nan,1696,0.65175498,5.9750929,176.97929,101.59648,nan,256.573,8.28894,-8.42816,nan,nan
1980-06-30 01:49:04,1,-1.875,8.825,-7.625,0.275,1,1,16170.0,16860.4,1696,0.65177035,5.9749365,176.96846,101.59737,30.0327,256.092,5.64113,-9.03859,16.3385,16.6837
1980-06-30 01:50:25,1,-1.7,8.675,-8.075,0.183712,1,1,19486.8,19775.6,1696,0.65177804,5.9748573,176.95718,101.59781,31.6242,255.834,6.10681,-9.85593,17.9361,18.0685
1980-06-30 01:51:46,1,-2.7,8.2,-7.9,0.0,1,1,14703.2,15961.1,1696,0.65178573,5.9747791,176.942,101.59825,30.0602,255.454,4.96385,-9.46119,15.5799,16.2326
1980-06-30 01:53:09,1,-3.275,7.55,-8.675,0.340955,1,1,19714.9,20061.5,1696,0.65180111,5.9746218,176.93118,101.59915,31.0914,253.926,3.86056,-11.0904,18.0408,18.1986
1980-06-30 01:54:30,1,-3.2,7.125,-8.6,0.178536,1,1,16491.4,17367.2,1696,0.6518088,5.9745436,176.91991,101.59959,30.3737,255.986,3.22473,-9.53015,16.5001,16.9326
1980-06-30 01:55:51,1,-3.3,8.2,-7.55,0.35,1,1,20539.9,20402.2,1696,0.65181649,5.9744644,176.90863,101.60004,30.8803,255.32,4.70679,-8.36046,18.4144,18.3525
1980-06-30 01:58:33,1,-3.8,7.7,-7.8,0.0,1,1,21352.0,21304.9,1696,0.65183955,5.9742289,176.88261,101.60136,31.5119,253.235,2.99208,-9.18801,18.7749,18.7542
1980-06-30 01:59:54,1,-3.5,7.9,-7.9,1.25607e-15,1,1,18101.8,18835.3,1696,0.6518473,5.9741507,176.87134,101.60181,29.8912,253.48,3.58595,-9.24433,17.287,17.6337
1980-06-30 02:01:15,1,-3.3,8.0,-7.9,0.223607,1,1,20918.0,20875.4,1696,0.65186262,5.9739933,176.86052,101.60271,30.5537,254.19,5.3029,-8.11536,18.5831,18.5642
1980-06-30 02:02:36,1,-3.2,8.025,-8.0,0.258602,1,1,16206.0,17954.5,1696,0.65187037,5.9739151,176.84924,101.60315,30.6277,254.12,4.26117,-7.48619,16.3567,17.2165
1980-06-30 02:03:57,1,-2.8,8.4,-7.7,0.3,1,1,20329.4,20414.3,1696,0.65187806,5.9738359,176.83797,101.60359,31.8589,254.984,5.65122,-8.50565,18.3198,18.358
1980-06-30 02:05:18,1,-2.8,7.75,-8.3,0.206155,1,1,17661.7,17955.6,1696,0.65189338,5.9736795,176.82713,101.60448,30.491,255.224,4.3379,-8.40003,17.0755,17.217
1980-06-30 02:06:39,1,-2.175,8.775,-7.6,0.379144,1,1,22224.8,21162.3,1696,0.65190107,5.9736004,176.81195,101.60492,31.5471,256.635,4.14259,-9.18198,19.1548,18.6913
1980-06-30 02:08:00,1,-2.5,8.85,-7.275,0.551702,1,1,20250.1,19730.3,1696,0.65191644,5.973444,176.80112,101.6058,29.6155,255.846,6.12918,-7.19464,18.284,18.0478
1980-06-30 02:09:21,1,-2.95,7.9,-8.2,0.31225,1,1,22673.7,22244.9,1696,0.65192413,5.9733648,176.78984,101.60625,31.6663,255.166,0.957516,-10.6685,19.3472,19.1634
1980-06-30 02:10:42,1,-3.0,8.125,-7.9,0.178536,1,1,18404.7,19700.6,1696,0.65193182,5.9732866,176.77856,101.60669,29.0304,253.994,2.45181,-10.0912,17.431,18.0342
1980-06-30 02:12:03,1,-3.55,9.05,-6.875,0.326917,1,1,21610.6,21767.9,1696,0.6519472,5.9731293,176.76773,101.60757,31.1824,253.926,5.39188,-7.91894,18.8882,18.9568
1980-06-30 02:13:24,1,-3.95,9.6,-6.325,0.59108,1,1,17486.1,18824.8,1696,0.65195489,5.9730511,176.75645,101.60802,28.5291,254.571,2.6303,-8.7378,16.9904,17.6288
1980-06-30 02:14:45,1,-3.575,7.85,-8.175,0.266927,1,1,20095.3,21745.7,1696,0.65196258,5.9729719,176.74127,101.60846,31.2044,253.816,4.06922,-7.92287,18.214,18.9472
1980-06-30 02:16:06,1,-2.675,8.9,-7.575,0.358818,1,1,16269.7,17409.0,1696,0.65197796,5.9728155,176.73044,101.60934,29.1382,257.166,3.15256,-9.56768,16.3888,16.9529
1980-06-30 02:17:27,1,-3.925,6.7,-8.9,0.258602,1,1,18100.9,18309.6,1696,0.65198565,5.9727364,176.71916,101.60979,30.5819,254.591,-3.49153,-10.5601,17.2865,17.3859
1980-06-30 02:18:48,1,-3.5,7.025,-8.625,0.183712,1,1,17556.4,17494.5,1696,0.65199333,5.9726582,176.70789,101.61023,28.8135,255.753,0.984418,-11.0352,17.0246,16.9945
1980-06-30 02:20:09,1,-3.05,8.8,-6.4,0.342783,1,1,22988.7,20859.3,1696,0.65200871,5.9725008,176.69705,101.61111,31.856,254.881,2.96432,-7.84594,19.4812,18.557
1980-06-30 02:21:30,1,-3.225,8.95,-6.3,0.253722,1,1,17491.7,18187.8,1696,0.6520164,5.9724226,176.68187,101.61156,30.2514,254.883,3.53169,-7.97512,16.9932,17.328
1980-06-30 02:22:51,1,-3.275,8.8,-6.2,0.178536,1,1,22026.1,20812.0,1696,0.65202409,5.9723434,176.67059,101.612,31.7495,254.324,2.57843,-8.32996,19.0689,18.536
1980-06-30 02:24:12,1,-2.8,9.25,-6.05,0.308221,1,1,16850.0,17639.3,1696,0.65203947,5.972187,176.65976,101.61288,30.5226,256.654,5.02449,-5.88627,16.6785,17.0647
1980-06-30 02:25:33,1,-2.8,9.05,-6.325,0.198431,1,1,20679.4,21024.7,1696,0.65204716,5.9721079,176.64848,101.61333,32.605,256.855,5.78692,-6.88208,18.4768,18.6304
1980-06-30 02:26:54,1,-2.6,9.55,-6.1,0.259808,1,1,17271.4,17346.4,1696,0.65205485,5.9720297,176.63721,101.61377,30.5057,256.762,4.20423,-6.52678,16.8858,16.9224
1980-06-30 02:28:15,1,-2.375,9.55,-6.2,0.323071,1,1,21144.2,19911.0,1696,0.65207022,5.9718723,176.62637,101.61465,32.4483,257.622,4.56204,-8.04168,18.6833,18.1303
1980-06-30 02:29:36,1,-2.225,9.4,-6.4,0.178536,1,1,17469.3,18379.9,1696,0.65207791,5.9717941,176.61119,101.6151,29.7651,257.851,3.68907,-8.46732,16.9823,17.4192
1980-06-30 02:30:57,1,-1.8,9.5,-6.4,0.0,1,1,22054.3,20088.6,1696,0.6520856,5.971715,176.59993,101.61555,31.7911,259.037,3.989,-9.15382,19.0812,18.2109
1980-06-30 02:32:18,1,-3.275,8.825,-6.375,0.771767,1,1,16151.7,17607.9,1696,0.65210092,5.9715586,176.5891,101.61644,30.9779,258.033,3.38716,-8.93951,16.3293,17.0495
1980-06-30 02:33:39,1,-3.3,8.45,-6.975,0.298957,1,1,19920.4,20287.8,1696,0.65210861,5.9714794,176.57782,101.61688,32.5282,254.852,1.95439,-9.22107,18.1346,18.301
1980-06-30 02:35:00,1,-2.6,9.1,-6.9,0.173205,1,1,15748.1,16835.9,1696,0.65212399,5.971323,176.56699,101.61777,30.5906,258.027,4.083,-8.93372,16.124,16.6716
1980-06-30 02:36:21,-1,nan,nan,nan,nan,1,4,nan,nan,1696,0.65213168,5.9712439,176.55571,101.61821,nan,nan,nan,nan,nan,nan
1980-06-30 02:37:42,1,-1.7,9.1,-6.8,0.0,1,1,17961.4,19111.2,1696,0.65213937,5.9711657,176.54053,101.61865,29.6211,255.828,3.20062,-9.56501,17.2198,17.7624
1980-06-30 02:39:03,1,-1.3,9.325,-7.2,0.248747,1,1,22849.0,21170.4,1696,0.65215474,5.9710083,176.52969,101.61954,31.7448,255.032,2.6067,-8.86545,19.4219,18.6949
1980-06-30 02:40:24,1,-1.125,9.275,-7.1,0.329773,1,1,19624.5,18125.7,1696,0.65216243,5.9709301,176.51842,101.61998,30.2684,255.12,3.051,-8.0404,17.9994,17.2984
1980-06-30 02:41:45,1,-0.85,9.35,-6.925,0.277263,1,1,23338.9,20986.4,1696,0.65217012,5.9708509,176.50714,101.62042,30.5764,255.842,3.20748,-8.31792,19.629,18.6135
1980-06-30 02:43:06,1,-1.075,9.375,-7.1,0.242384,1,1,17831.3,18401.0,1696,0.6521855,5.9706945,176.49631,101.62131,29.4303,256.037,2.59072,-8.59875,17.1573,17.4293
1980-06-30 02:44:27,1,-1.725,9.1,-7.025,0.365718,1,1,22033.1,21208.2,1696,0.65219319,5.9706154,176.48112,101.62175,31.8422,255.849,2.53597,-8.19863,19.072,18.7115
1980-06-30 02:45:48,1,-2.975,9.0,-7.1,0.286138,1,1,19245.5,19431.3,1696,0.65220088,5.9705372,176.46985,101.62219,31.2748,251.384,1.68576,-8.58052,17.8247,17.9105
1980-06-30 02:47:09,1,-3.8,8.575,-7.0,0.178536,1,1,21265.1,22259.8,1696,0.65221626,5.9703798,176.45901,101.62308,32.7601,250.609,1.18093,-8.82378,18.7367,19.1699
1980-06-30 02:48:30,1,-3.3,8.7,-7.2,0.254951,1,1,17924.0,19754.2,1696,0.65222394,5.9703016,176.44774,101.62352,32.1819,251.062,2.55878,-8.89482,17.2019,18.0588
1980-06-30 02:49:51,1,-3.5,8.7,-7.05,0.229129,1,1,20685.0,19803.9,1696,0.65223163,5.9702234,176.43646,101.62396,30.8918,249.721,0.899324,-8.36687,18.4793,18.0814
1980-06-30 02:51:12,1,-3.1,8.45,-7.1,0.193649,1,1,16471.3,17969.3,1696,0.65224701,5.9700661,176.42563,101.62485,29.3096,251.647,2.28635,-8.63358,16.49,17.2236
1980-06-30 02:52:33,1,-3.475,8.2,-7.1,0.178536,1,1,19695.7,19609.7,1696,0.6522547,5.9699869,176.41045,101.62529,30.3377,249.303,0.399859,-8.67793,18.032,17.9926
1980-06-30 02:53:54,1,-3.0,8.1,-7.5,0.0,1,1,16504.9,17950.6,1696,0.65226239,5.9699087,176.39917,101.62573,29.7349,250.235,1.13032,-9.45747,16.5069,17.2146
1980-06-30 02:55:15,1,-2.575,8.175,-7.725,0.30104,1,1,19401.9,20565.7,1696,0.65227777,5.9697514,176.38834,101.62662,31.3996,252.355,0.362056,-8.97054,17.897,18.4259
1980-06-30 02:56:36,1,-2.8,8.175,-7.9,0.178536,1,1,15745.6,17578.9,1696,0.65228546,5.9696732,176.37706,101.62706,29.8891,252.489,1.88452,-10.1793,16.1227,17.0354
1980-06-30 02:57:57,1,-2.7,8.2,-7.9,0.0,1,1,19020.1,20273.8,1696,0.65229315,5.969595,176.36578,101.6275,31.3989,252.379,0.747712,-9.29121,17.72,18.2947
1980-06-30 02:59:18,1,-2.6,8.175,-7.925,0.220794,1,1,16738.7,17979.4,1696,0.65230852,5.9694376,176.35495,101.62839,29.6862,253.337,2.81146,-9.39736,16.6234,17.2284
1980-06-30 03:00:39,1,-2.475,8.35,-7.975,0.162019,1,1,18861.1,19351.4,1696,0.65231621,5.9693594,176.33978,101.62885,31.7402,252.302,2.06853,-9.22242,17.6458,17.8737
1980-06-30 03:02:00,1,-2.65,8.675,-7.45,0.471036,1,1,16096.7,16839.2,1696,0.65233153,5.969202,176.32893,101.62971,30.3314,253.337,1.78145,-10.4534,16.3014,16.6732
1980-06-30 03:03:21,1,-2.1,7.95,-8.5,0.304138,1,1,20526.7,20833.1,1696,0.65233922,5.9691229,176.31766,101.63016,30.7971,255.277,0.600181,-10.8207,18.4084,18.5453
1980-06-30 03:04:42,1,-2.075,8.1,-8.5,0.268095,1,1,16570.1,17274.3,1696,0.65234691,5.9690447,176.30638,101.6306,29.1906,254.948,1.66662,-10.0356,16.5394,16.8872
1980-06-30 03:06:03,1,-3.0,8.35,-7.9,0.269258,1,1,18979.1,21558.1,1696,0.65236229,5.9688873,176.29555,101.63148,30.5145,251.943,1.20404,-9.33184,17.7009,18.8653
1980-06-30 03:07:24,1,-2.975,8.325,-7.8,0.322102,1,1,16735.5,17707.1,1696,0.65236998,5.9688091,176.28036,101.63193,29.6402,252.539,3.14014,-8.7273,16.6218,17.0975
1980-06-30 03:08:45,1,-3.15,7.95,-8.0,0.324037,1,1,20109.5,20659.8,1696,0.65237767,5.9687309,176.26909,101.63237,30.897,252.658,1.56357,-9.7477,18.2204,18.4681
1980-06-30 03:10:06,1,-3.1,8.1,-7.9,0.0,1,1,16671.7,17101.3,1696,0.65239298,5.9685736,176.25826,101.63326,29.5185,252.185,1.80168,-9.70534,16.5901,16.8025
1980-06-30 03:11:27,1,-3.3,8.375,-7.375,0.242384,1,1,20020.4,19612.3,1696,0.65240067,5.9684944,176.24698,101.6337,29.9087,250.182,2.79849,-6.56423,18.18,17.9938
1980-06-30 03:12:48,1,-3.75,8.425,-7.3,0.298957,1,1,16404.0,18664.5,1696,0.65240836,5.9684162,176.2357,101.63414,30.6699,249.473,3.07187,-7.45537,16.4563,17.5536
1980-06-30 03:14:09,1,-3.3,8.375,-7.475,0.183712,1,1,20157.9,19109.2,1696,0.65242374,5.9682589,176.22485,101.63501,30.7101,250.017,2.96221,-7.49713,18.2423,17.7615
1980-06-30 03:15:30,1,-3.575,8.2,-7.825,0.183712,1,1,16572.3,17624.1,1696,0.65243143,5.9681807,176.20967,101.63545,29.7178,250.576,2.21528,-8.38473,16.5405,17.0573
1980-06-30 03:16:51,1,-3.775,8.1,-8.0,0.363146,1,1,19456.5,20354.8,1696,0.65243912,5.9681025,176.19839,101.63589,30.0189,249.737,1.48118,-8.80554,17.9221,18.3312
1980-06-30 03:18:12,1,-3.55,8.1,-7.75,0.291548,1,1,17566.4,18627.1,1696,0.65245444,5.9679451,176.18756,101.63678,29.2127,251.32,2.88306,-7.65848,17.0294,17.536
1980-06-30 03:19:33,1,-3.475,8.4,-7.175,0.289396,1,1,20938.4,21086.5,1696,0.65246212,5.9678669,176.17628,101.63722,31.2217,250.293,2.81077,-7.26003,18.5921,18.6578
1980-06-30 03:20:54,1,-3.2,8.2,-7.5,0.254951,1,1,16447.0,17766.3,1696,0.65246981,5.9677877,176.16501,101.63766,29.7563,251.397,3.14269,-7.50638,16.4779,17.126
1980-06-30 03:22:15,1,-3.525,8.1,-7.55,0.298957,1,1,20441.9,21734.1,1696,0.65248519,5.9676304,176.15027,101.63855,30.9894,250.163,2.19646,-8.28925,18.3704,18.9421
1980-06-30 03:23:36,1,-3.125,8.25,-7.6,0.24367,1,1,17900.9,19539.7,1696,0.65249288,5.9675522,176.13899,101.63899,30.1361,251.844,3.09906,-8.03534,17.1908,17.9604
1980-06-30 03:24:57,1,-2.875,8.15,-7.8,0.253722,1,1,21344.4,21224.0,1696,0.65250057,5.967474,176.12772,101.63943,31.6644,252.791,2.68618,-8.03091,18.7716,18.7185
1980-06-30 03:26:18,1,-2.7,7.83333,-7.9,0.169967,1,1,16745.8,18829.5,1696,0.65251595,5.9673166,176.11687,101.6403,31.0871,253.433,2.58445,-8.92583,16.6269,17.631
1980-06-30 03:27:39,1,-2.6,7.85,-8.1,0.206155,1,1,21611.4,21014.9,1696,0.65252358,5.9672384,176.10559,101.64075,31.0356,253.573,2.08065,-9.16812,18.8886,18.6261
1980-06-30 03:29:00,1,-2.5,7.875,-8.125,0.262202,1,1,16925.3,18365.4,1696,0.65253896,5.9670811,176.09476,101.64163,30.3345,254.306,2.42446,-9.17928,16.7157,17.4124
1980-06-30 03:30:21,1,-2.75,7.8,-7.9,0.180278,1,1,21048.7,21897.0,1696,0.65254664,5.9670029,176.07957,101.64207,32.0763,254.45,1.94991,-10.1412,18.641,19.013
1980-06-30 03:31:42,1,-2.025,7.7,-8.1,0.178536,1,1,16668.0,18360.7,1696,0.65255433,5.9669237,176.0683,101.64252,31.1465,256.479,2.28455,-9.37518,16.5882,17.4101
1980-06-30 03:33:03,1,-2.675,7.85,-7.9,0.156125,1,1,19596.0,22528.6,1696,0.65256971,5.9667664,176.05746,101.6434,32.2313,256.191,2.5478,-9.56533,17.9863,19.2852
1980-06-30 03:34:24,1,-2.5,7.675,-8.15,0.290474,1,1,17058.3,18851.9,1696,0.6525774,5.9666882,176.04619,101.64384,30.8718,254.985,3.71198,-8.41858,16.7813,17.6415
1980-06-30 03:35:45,1,-2.625,7.725,-8.125,0.325,1,1,19823.6,21471.9,1696,0.65258509,5.96661,176.03491,101.64429,31.3357,254.212,3.66875,-8.00651,18.0905,18.8275
1980-06-30 03:37:06,1,-3.0,7.7,-8.3,0.0,1,1,18482.4,20282.3,1696,0.65260041,5.9664526,176.02406,101.64516,31.3075,253.427,3.7803,-8.29984,17.4678,18.2985
1980-06-30 03:38:27,1,-2.65,7.475,-8.325,0.401559,1,1,20875.0,22218.1,1696,0.6526081,5.9663744,176.00888,101.6456,32.4425,253.527,2.21847,-8.9082,18.564,19.1519
1980-06-30 03:39:48,1,-2.45,7.775,-8.35,0.248747,1,1,18891.2,19349.7,1696,0.65261579,5.9662952,175.9976,101.64604,31.6387,254.687,2.93548,-9.59205,17.6599,17.8729
1980-06-30 03:41:09,1,-2.0,7.7,-8.5,0.254951,1,1,22206.1,21965.7,1696,0.65263116,5.9661388,175.98677,101.64693,31.7873,256.0,2.34665,-10.3545,19.1467,19.0428
1980-06-30 03:42:30,1,-2.0,7.725,-8.4,0.178536,1,1,16061.6,17787.9,1696,0.65263885,5.9660597,175.97549,101.64737,30.1495,256.247,2.17285,-10.3273,16.2837,17.1364
1980-06-30 03:43:51,1,-1.7,7.6,-8.4,0.254951,1,1,21617.8,22012.5,1696,0.65264654,5.9659815,175.96422,101.64781,33.2769,255.083,2.22216,-8.98986,18.8914,19.063
1980-06-30 03:45:12,1,-1.4,7.75,-8.25,0.308221,1,1,18974.9,20939.9,1696,0.65266186,5.9658241,175.94948,101.6487,30.4285,255.063,3.88283,-8.3247,17.699,18.5928
1980-06-30 03:46:33,1,-0.85,8.95,-7.0,0.324037,1,1,23247.2,22691.5,1696,0.65266955,5.9657459,175.9382,101.64914,31.6545,256.541,9.23189,-4.47122,19.5904,19.3548
1980-06-30 03:47:54,1,-1.06667,8.63333,-7.03333,0.282843,1,1,19858.8,20934.1,1696,0.65267724,5.9656668,175.92693,101.64958,32.4433,255.749,6.09976,-5.83232,18.1065,18.5902
1980-06-30 03:49:15,1,-1.3,8.7,-6.9,0.254951,1,1,22509.3,23699.9,1696,0.65269262,5.9655104,175.91608,101.65045,33.7918,255.107,6.51453,-5.57123,19.277,19.7802
1980-06-30 03:50:36,1,-1.1,9.05,-6.7,0.45,1,1,20463.2,21218.2,1696,0.6527003,5.9654312,175.9048,101.65089,32.9825,255.333,6.65169,-4.88758,18.38,18.7159
1980-06-30 03:51:57,1,-1.45,8.475,-7.4,0.233184,1,1,22187.6,22273.7,1696,0.65270799,5.965353,175.89352,101.65134,32.8369,255.491,6.78652,-6.2405,19.1387,19.1758
1980-06-30 03:53:18,1,-1.575,8.725,-7.275,0.275,1,1,20478.2,21059.8,1696,0.65272331,5.9651957,175.87878,101.65222,31.8216,254.865,5.94681,-6.16951,18.3867,18.646
1980-06-30 03:54:39,1,-1.5,8.55,-7.3,0.180278,1,1,22599.0,21895.0,1696,0.652731,5.9651175,175.86751,101.65266,32.0493,253.348,6.38981,-5.13436,19.3153,19.0121
1980-06-30 03:56:00,1,-1.9,8.15,-7.6,0.193649,1,1,20431.1,21157.1,1696,0.65274638,5.9649601,175.85667,101.65355,31.6851,252.987,5.08364,-6.20342,18.3655,18.689
1980-06-30 03:57:21,1,-1.4,8.05,-7.775,0.315238,1,1,23359.7,22919.5,1696,0.65275407,5.9648819,175.8454,101.65399,34.0295,253.974,4.84751,-6.75835,19.6378,19.4518
1980-06-30 03:58:42,1,-1.4,8.275,-7.675,0.322102,1,1,20712.0,20747.4,1696,0.65276176,5.9648027,175.83412,101.65443,32.4899,254.676,5.28779,-6.51178,18.4914,18.5072
1980-06-30 04:00:03,1,-1.725,7.7,-8.0,0.216506,1,1,23873.5,23532.1,1696,0.65277714,5.9646463,175.82329,101.65532,32.963,252.138,4.7499,-7.21101,19.8525,19.7101
1980-06-30 04:01:24,1,-2.1,8.05,-7.7,0.259808,1,1,20020.1,20646.8,1696,0.65278476,5.9645672,175.80809,101.65575,29.8901,252.517,4.69736,-7.0034,18.1799,18.4622
1980-06-30 04:02:45,1,-1.8,8.2,-7.5,0.173205,1,1,23264.3,22719.1,1696,0.65279245,5.964489,175.79681,101.65619,33.0599,252.589,5.38395,-7.04323,19.5976,19.3666